[[{"header":{"parameterUnit":"m.s-1","parameterCategory":1,"la1":30.2991,"la2":30.254,"lo1":-89.0895,"lo2":-89.0444,"dy":0.0017,"dx":0.0017,"nx":28,"ny":28,"refTime":"2023-09-22T21:00:00:Z","depth":0,"parameterNumber":2,"parameterNumberName":"U-component_of_WINDS"},"data":[0,0,0,0,0,0,0,0,0,0,0,0,0,0,0,0,0,0,0,0,0,0,0,0,0,0,0,0,0,0,0,0,0,0,0,0,0,0,0,0,0,0,0,0,0,0,0,0,0,0,0,0,0,0,0,0,0,0,0.6853,0.6853,0,0.6858,0.6858,0.6858,0.6831,0.683,0.6829,0.6828,0.6832,0.6833,0.6834,0,0,0,0,0,0,0,0,0,0,0,0,0,0.6818,0.6818,0.6853,0.6853,0.6853,0.6858,0.6858,0.6858,0.6831,0.683,0.6829,0.6828,0.6832,0.6833,0.6834,0,0,0,0,0,0,0,0,0,0,0,0,0,0.6829,0.6819,0.6853,0.684,0.6839,0.6858,0.6858,0.6858,0.6831,0.683,0.6829,0.6827,0.6831,0.6833,0.6834,0.6865,0,0,0.6838,0.6838,0,0,0,0,0,0,0,0,0.6828,0.683,0.6842,0.6841,0.684,0.6842,0.6847,0.686,0.6831,0.6834,0.6828,0.6827,0.6836,0.6837,0.684,0.6865,0.6865,0.6838,0.6838,0.6839,0.6839,0,0,0,0,0,0,0,0.6827,0.683,0.6855,0.6842,0.6841,0.6833,0.6833,0.6849,0.6841,0.6834,0.6832,0.6833,0.6835,0.6839,0.684,0.6865,0.6838,0.6839,0.6839,0.684,0.6912,0.6913,0,0,0,0,0,0,0.6829,0.6829,0.6854,0.6855,0.6831,0.6835,0.6835,0.6843,0.6841,0.684,0.6834,0.6831,0.6838,0.6839,0.684,0.6874,0.6839,0.684,0.6841,0.6911,0.6912,0.6914,0,0,0,0,0,0,0.6828,0.6831,0.6854,0.6841,0.6844,0.6837,0.6845,0.6843,0.6847,0.6841,0.684,0.6839,0.6837,0.6839,0.6858,0.6874,0.6841,0.6842,0.6909,0.6911,0.6913,0.6943,0,0,0,0,0,0,0.6827,0.6831,0.6843,0.6842,0.6845,0.6873,0.6846,0.6844,0.6849,0.6847,0.6846,0.6845,0.6836,0.6857,0.6859,0.6875,0.6843,0.6908,0.691,0.6912,0.6941,0.6946,0.695,0,0,0,0,0,0.6826,0.6852,0.6844,0.6847,0.686,0.6874,0.6875,0.6865,0.6851,0.6862,0.6858,0.6845,0.6872,0.6859,0.6862,0.6878,0.6907,0.691,0.6912,0.6938,0.6945,0.695,0,0,0,0,0,0,0.6855,0.6852,0.6843,0.6869,0.6872,0.6869,0.6884,0.6872,0.6879,0.6876,0.6863,0.6863,0.6884,0.6883,0.6869,0.6906,0.6887,0.689,0.6906,0.6912,0.6916,0.6915,0.6844,0,0,0,0,0,0.6865,0.6877,0.6873,0.6897,0.6899,0.6891,0.6897,0.6889,0.6891,0.6892,0.6889,0.6891,0.69,0.6906,0.6914,0.6941,0.6939,0.6953,0.6958,0.6962,0.6964,0.6976,0.6981,0.6922,0.6922,0.6922,0,0,0.6885,0.6884,0.6893,0.6903,0.6904,0.6915,0.6892,0.6906,0.6914,0.6894,0.6911,0.691,0.6911,0.6934,0.6944,0.6934,0.6981,0.6965,0.6968,0.6969,0.6979,0.6985,0.699,0.6924,0.6924,0.6923,0,0,0.6926,0.6928,0.6947,0.6948,0.695,0.6945,0.6949,0.6948,0.6946,0.6964,0.6948,0.6957,0.6974,0.6974,0.6977,0.7017,0.7004,0.7021,0.7044,0.7056,0.706,0.7064,0.7076,0.7081,0.7023,0.7024,0.7024,0,0.695,0.6968,0.6958,0.6972,0.6976,0.6958,0.6976,0.6978,0.6982,0.6985,0.6974,0.6992,0.6993,0.7014,0.7023,0.7027,0.703,0.702,0.7061,0.7064,0.7068,0.7079,0.7084,0.7025,0.7025,0.7025,0.7025,0,0.6996,0.7008,0.7023,0.7027,0.7033,0.7049,0.704,0.7047,0.7039,0.7034,0.7051,0.7051,0.7057,0.7062,0.7054,0.7082,0.7075,0.7063,0.7043,0.7076,0.7086,0.709,0.7028,0.7027,0.7027,0.7026,0,0,0.7056,0.7053,0.7059,0.7059,0.706,0.7068,0.7083,0.709,0.7095,0.7099,0.7109,0.7123,0.711,0.7113,0.7106,0.7116,0.7145,0.7102,0.7102,0.7108,0.7172,0.718,0.7185,0.7137,0.7138,0.7139,0.7171,0,0.7094,0.7119,0.7109,0.7135,0.7144,0.7127,0.714,0.7141,0.7137,0.7144,0.714,0.7148,0.7133,0.7135,0.7144,0.7139,0.7157,0.7137,0.7145,0.7145,0.7143,0.7191,0.72,0.7231,0.7176,0.7176,0.7177,0,0.7142,0.7147,0.7173,0.7169,0.7173,0.7185,0.7188,0.7196,0.7197,0.7193,0.7196,0.7185,0.7198,0.7179,0.7196,0.7182,0.7185,0.7183,0.7184,0.7183,0.7162,0.7189,0.7241,0.7244,0.7184,0.7183,0.7183,0,0.7179,0.7192,0.7209,0.721,0.7208,0.7216,0.7215,0.7214,0.7218,0.7222,0.7223,0.7229,0.7231,0.7235,0.7226,0.7213,0.7243,0.7224,0.7238,0.7238,0.7243,0.7243,0.7294,0.7249,0.7249,0.7249,0.7249,0,0.7222,0.7237,0.7225,0.7235,0.7252,0.7241,0.7258,0.7255,0.7254,0.7262,0.7249,0.7257,0.7245,0.7252,0.7245,0.7258,0.726,0.7256,0.7253,0.7256,0.7256,0.7256,0.7252,0.725,0.725,0.725,0.725,0,0.7265,0.7258,0.7274,0.727,0.727,0.7282,0.7278,0.7286,0.7282,0.7292,0.7294,0.7286,0.7293,0.7284,0.7291,0.7286,0.7303,0.7299,0.7303,0.73,0.7314,0.7312,0.7366,0.7371,0.7325,0.7325,0.7326,0,0.7292,0.7303,0.73,0.7304,0.7304,0.7312,0.7316,0.7305,0.7309,0.731,0.7318,0.7323,0.7327,0.7339,0.7333,0.7337,0.7331,0.7349,0.7331,0.7333,0.7328,0.7327,0.7327,0.7352,0.7353,0.7353,0.7354,0,0.7338,0.7334,0.7339,0.7343,0.7348,0.735,0.7352,0.7357,0.7345,0.7351,0.7357,0.736,0.7366,0.7371,0.7374,0.7372,0.736,0.736,0.7363,0.7364,0.7365,0.7362,0.731,0.7358,0.7358,0.7357,0.7357,0.7357,0.7372,0.7381,0.7379,0.7385,0.7386,0.7387,0.7394,0.739,0.7395,0.7399,0.7393,0.74,0.7399,0.7401,0.7401,0.7406,0.7398,0.7403,0.7404,0.7405,0.7406,0.7366,0.7407,0.7407,0.7407,0.7407,0.7406,0,0.7416,0.7414,0.742,0.7422,0.7426,0.7416,0.7417,0.7421,0.7428,0.7428,0.7432,0.7438,0.7443,0.7438,0.7441,0.7446,0.7441,0.7447,0.7445,0.7445,0.7414,0.741,0.7451,0.7451,0.7451,0.7451,0.7451,0.7451,0.7439,0.7452,0.7447,0.746,0.7458,0.7465,0.7466,0.7467,0.7466,0.7474,0.7478,0.7475,0.7472,0.7475,0.7478,0.7476,0.7477,0.7485,0.7481,0.7452,0.7447,0.7443,0.7439,0.7486,0.7486,0.7511,0.7511,0.7511]},{"header":{"parameterUnit":"m.s-1","parameterCategory":1,"la1":30.2991,"la2":30.254,"lo1":-89.0895,"lo2":-89.0444,"dy":0.0017,"dx":0.0017,"nx":28,"ny":28,"refTime":"2023-09-22T21:00:00:Z","depth":0,"parameterNumber":3,"parameterNumberName":"V-component_of_WINDS"},"data":[0,0,0,0,0,0,0,0,0,0,0,0,0,0,0,0,0,0,0,0,0,0,0,0,0,0,0,0,0,0,0,0,0,0,0,0,0,0,0,0,0,0,0,0,0,0,0,0,0,0,0,0,0,0,0,0,0,0,0.9757,0.9756,0,0.9688,0.9687,0.9686,0.9616,0.9615,0.9614,0.9613,0.9542,0.9541,0.954,0,0,0,0,0,0,0,0,0,0,0,0,0,0.9826,0.9825,0.9757,0.9756,0.9755,0.9688,0.9687,0.9686,0.9616,0.9615,0.9614,0.9613,0.9542,0.9541,0.954,0,0,0,0,0,0,0,0,0,0,0,0,0,0.978,0.9825,0.9757,0.9712,0.9708,0.9688,0.9687,0.9686,0.9617,0.9615,0.9614,0.9612,0.9543,0.9541,0.954,0.9559,0,0,0.9535,0.9534,0,0,0,0,0,0,0,0,0.9783,0.9778,0.972,0.9715,0.971,0.9659,0.9685,0.9643,0.9617,0.9651,0.9613,0.9612,0.9582,0.9577,0.9567,0.9555,0.9552,0.9535,0.9534,0.9533,0.9533,0,0,0,0,0,0,0,0.9786,0.978,0.9729,0.9719,0.9713,0.9695,0.9687,0.9677,0.9625,0.9648,0.9643,0.9636,0.9579,0.9569,0.9565,0.9551,0.9535,0.9534,0.9533,0.9532,0.9549,0.955,0,0,0,0,0,0,0.9796,0.9784,0.9732,0.9727,0.9744,0.9695,0.9686,0.9677,0.9625,0.9616,0.9637,0.9633,0.9572,0.9567,0.9562,0.9579,0.9533,0.9532,0.9531,0.9547,0.9549,0.955,0,0,0,0,0,0,0.9798,0.9792,0.9734,0.9754,0.9745,0.9695,0.9686,0.9676,0.9666,0.9617,0.9607,0.9636,0.9571,0.9565,0.956,0.9576,0.9531,0.953,0.9546,0.9548,0.955,0.9615,0,0,0,0,0,0,0.98,0.9794,0.9801,0.9755,0.9744,0.9734,0.9687,0.9676,0.9664,0.9658,0.9614,0.9605,0.9569,0.9562,0.9558,0.9573,0.9529,0.9544,0.9547,0.9549,0.9611,0.9619,0.9626,0,0,0,0,0,0.9803,0.9822,0.9802,0.9796,0.9753,0.9735,0.9729,0.9688,0.9666,0.9672,0.964,0.9606,0.9575,0.9562,0.9557,0.9572,0.9543,0.9546,0.9549,0.9608,0.9618,0.9626,0,0,0,0,0,0,0.9872,0.9816,0.9792,0.9797,0.9771,0.9723,0.973,0.97,0.968,0.9675,0.9624,0.9615,0.9615,0.9593,0.958,0.9586,0.9554,0.9556,0.9601,0.961,0.9617,0.9622,0.9527,0,0,0,0,0,0.9888,0.9879,0.983,0.9839,0.9827,0.9781,0.9772,0.9742,0.9713,0.9702,0.967,0.9643,0.9626,0.9617,0.9599,0.9608,0.9596,0.9615,0.9623,0.9629,0.9631,0.9632,0.9639,0.956,0.956,0.956,0,0,0.992,0.9888,0.9886,0.9852,0.9828,0.9819,0.9772,0.9765,0.9757,0.9701,0.9694,0.9669,0.9635,0.9637,0.9636,0.9618,0.965,0.9633,0.9638,0.9637,0.9636,0.9643,0.965,0.9563,0.9562,0.9562,0,0,0.9974,0.995,0.9954,0.9931,0.9896,0.9865,0.9866,0.9822,0.9804,0.9796,0.9753,0.9742,0.9716,0.9693,0.9678,0.9722,0.9689,0.9717,0.9756,0.9757,0.9763,0.9768,0.9782,0.9788,0.972,0.972,0.972,0,1.0019,1.0004,0.996,0.9954,0.994,0.9888,0.9891,0.9871,0.9832,0.9823,0.9804,0.9768,0.9742,0.9737,0.9747,0.9737,0.9735,0.9722,0.9766,0.977,0.9775,0.9787,0.9793,0.9724,0.9723,0.9723,0.9723,0,1.0059,1.0049,1.0057,1.002,1.0006,1.0005,0.996,0.9952,0.9923,0.9894,0.9885,0.9852,0.9826,0.9822,0.9794,0.9812,0.9802,0.9775,0.9742,0.9786,0.9797,0.9802,0.9729,0.9727,0.9726,0.9726,0,0,1.0155,1.0093,1.0097,1.0079,1.0036,1.0026,1.0022,0.9997,0.999,0.9964,0.9958,0.9937,0.9911,0.9894,0.9863,0.9864,0.9898,0.9836,0.9835,0.9848,0.9913,0.9933,0.994,0.9877,0.9878,0.9878,0.9916,0,1.0201,1.0191,1.015,1.0152,1.0141,1.0091,1.0087,1.006,1.0032,1.0018,0.9987,0.9971,0.994,0.9929,0.9928,0.9895,0.9911,0.9891,0.987,0.9869,0.9879,0.9946,0.9967,1.0004,0.992,0.9921,0.9921,0,1.0253,1.023,1.0231,1.0186,1.018,1.0178,1.015,1.0138,1.0105,1.0084,1.0065,1.003,1.0021,0.999,0.9976,0.9964,0.9953,0.9935,0.9935,0.9931,0.9898,0.9942,1.0015,1.002,0.9928,0.9927,0.9927,0,1.0321,1.0291,1.0286,1.0273,1.0221,1.022,1.0199,1.0165,1.0151,1.0127,1.0117,1.0092,1.0079,1.0059,1.0018,1.0,1.0008,0.9974,0.999,0.9991,0.9993,0.9993,1.0064,0.9988,0.9988,0.9988,0.9988,0,1.0375,1.0377,1.0316,1.0314,1.0313,1.0267,1.0268,1.0241,1.0211,1.0201,1.0157,1.0148,1.0095,1.008,1.0047,1.004,1.0034,1.0016,1.0007,1.002,1.0022,1.0011,1.0007,0.9989,0.9989,0.9989,0.9988,0,1.0451,1.0411,1.0402,1.0354,1.0342,1.0344,1.0302,1.0297,1.0266,1.0254,1.0249,1.02,1.018,1.0137,1.0105,1.0083,1.0083,1.0068,1.0094,1.0089,1.0106,1.0104,1.0171,1.0177,1.0099,1.01,1.01,0,1.0488,1.0488,1.044,1.043,1.041,1.0396,1.0382,1.0335,1.0322,1.0284,1.0283,1.026,1.0238,1.0208,1.0169,1.0144,1.0127,1.0153,1.0123,1.0135,1.0126,1.0126,1.0125,1.0159,1.016,1.0161,1.0162,0,1.0558,1.0537,1.0519,1.0493,1.0478,1.0455,1.043,1.0425,1.0372,1.0359,1.0338,1.0322,1.0289,1.0266,1.0234,1.0211,1.0177,1.0171,1.0173,1.0185,1.02,1.0191,1.0111,1.017,1.0169,1.0168,1.0168,1.0168,1.0614,1.0611,1.0576,1.0557,1.0533,1.051,1.0503,1.0471,1.0453,1.0422,1.0396,1.0377,1.0342,1.0297,1.0275,1.0259,1.0242,1.0245,1.0246,1.0247,1.0252,1.0203,1.0253,1.0253,1.0252,1.0252,1.0252,0,1.068,1.0654,1.0637,1.0603,1.0588,1.0558,1.0528,1.0517,1.0501,1.0472,1.0451,1.0426,1.0403,1.0362,1.0335,1.033,1.0313,1.0324,1.0323,1.0318,1.0269,1.0269,1.0337,1.0337,1.0337,1.0337,1.0337,1.0337,1.0712,1.0705,1.068,1.0661,1.0635,1.0616,1.0602,1.058,1.0556,1.053,1.0511,1.0485,1.045,1.0419,1.0396,1.0384,1.0376,1.0391,1.0375,1.033,1.0322,1.0314,1.0314,1.039,1.039,1.0425,1.0425,1.0425]}]]